Showing default

DRUMS, 49401

Orbit data source: Space-Track

DRUMS, 49401 is a payload satellite owned by Kawasaki (JP) in SSO that was launched on Tue, 09 Nov 2021 UTC via an EPSILON launch vehicle from the Kagoshima Space Center University Of Tokyo (KSCUT). Payload-class satellites include a variety of spacecraft equipped with specific instruments for various scientific and technological missions. These include communications satellites like Starlink; space stations such as the ISS; scientific satellites like the Hubble; Earth observation satellites from companies like Planet Labs, Umbra, and HawkEye 360; GPS; miniature CubeSats for education and research; and military/defense satellites.

Loading next visibility...
Identifier
49401, 2021-102G
Orbit
SSO
Country
Flag of JPJP / JPN
Related business
Manufacturer
Kawasaki
Mission
Operational Commercial Technology
Bus & Motor
DRUMS, Unknown motor
Mass
46 kg wet, 46 kg dry
Launch date (UTC)
2021-11-09 (4 years ago)
Launch vehicle
EPSILON
Launch site
Kagoshima Space Center University Of Tokyo (KSCUT)
Object type
Payload
Rocket body
Debris
Shape & HBR
Box, 0.4 m
Radar Cross Section
0.690 m², Medium (>0.1 m² and < 1m²)

Expand to show TLE details & history
Last TLE update: 13 hours ago

TLE from 13 hours ago
0 DRUMS
1 49401U 21102G   26095.00750431  .00007255  00000-0  34069-3 0  9990
2 49401  97.3376 134.1180 0016863 125.8703 234.4101 15.19793236242462
Epoch: 2026-04-05T00:10Z
TLE epoch observation values (Epoch: 2026-04-05T00:10:48.372Z)
Latitude
-0.00002°
Longitude
-61.90266°
Altitude
516.328 km
Speed
7.602 km/s
True Right ascension
08h 56m 28s
True Declination
0° 00' 00"
Sunlit
Object was in full shadow at epoch
Visualization orbit readout
Latitude
Unknown
Longitude
Unknown
Altitude
Unknown
Speed
Unknown
Apparent Right ascension
Unknown
Apparent Declination
Unknown
Sunlit
N/A
Visualization observer readout
Local Sidereal Time
19:27:57
Azimuth
Unknown
Elevation
Unknown
Doppler factor
Unknown
Orbital elements
Apogee altitude
515.033 km
Perigee altitude
491.824 km
Semi-major axis
6,881.565 km
Eccentricity
0.00169
Inclination
97.3376°
RAAN
134.118°
Arg. of periapsis
125.8703°
True anomaly
234.25315°
Mean anomaly
234.4101°
Eccentric anomaly
234.33161°
Mean motion
3.802 °/min
Orbital period
94.69 mins
BSTAR
0.00034069
Loading maneuver chart data...
Computing Atmospheric mass density...
Loading historical data...
Loading historical data...
Loading historical data...
Loading historical data...
Loading historical data...
Loading historical data...
Loading historical data...

Documentation

Showing up to 5 results
|